Temp
19 20 20 20 21 22 23 23 23 24 25 25 25 25 26 26 27 26 25 33 34 33 33 33 33 33 30 28 29 27 26 27 30 33 35 34 34 35 33 32 32 32 30 28 27
18 18 19 20 21 22 23 23 24 24 25 25 25 25 26 26 25 23 35 35 34 33 33 33 31 30 27 28 27 25 26 29 32 33 33 35 35 34 32 31 31 30 30 29 28
19 19 19 20 20 21 22 23 24 24 24 25 25 26 26 26 23 30 35 36 35 33 33 31 27 27 27 28 27 25 26 30 32 33 32 33 33 35 31 30 30 28 29 29 29
18 19 19 19 20 21 22 23 24 24 24 24 25 25 26 24 30 35 35 36 35 33 33 32 31 27 26 27 28 26 28 31 30 32 33 32 34 33 33 31 31 30 30 30 29
18 18 19 19 19 20 21 22 24 24 24 24 25 25 25 25 27 35 34 35 34 33 33 32 29 27 30 28 27 27 29 29 30 32 32 34 35 34 32 32 31 31 30 30 29
18 18 18 18 19 20 21 22 24 24 24 24 25 24 23 26 34 35 34 34 34 33 33 32 29 29 27 27 27 29 28 26 28 30 34 36 34 33 32 31 31 31 30 30 29
17 18 18 18 19 20 21 23 24 24 24 24 24 23 22 27 34 34 33 34 34 33 32 32 31 30 29 28 29 29 26 28 32 34 34 34 33 32 32 31 30 30 30 30 29
17 17 17 18 19 20 21 23 24 25 25 25 24 21 23 33 33 34 34 34 34 34 34 34 34 31 28 25 28 27 25 25 32 33 34 34 32 32 32 31 30 30 30 30 30
16 17 17 18 18 19 21 23 25 26 25 24 22 21 25 32 32 36 34 33 35 34 35 35 32 30 32 28 28 26 26 26 28 32 34 32 32 33 32 31 30 30 31 31 30
15 16 17 18 18 18 21 24 25 24 22 21 21 24 26 31 35 36 37 36 34 34 34 34 30 30 30 28 27 27 29 30 32 34 32 32 33 34 32 32 31 31 31 31 31
14 15 17 17 17 17 19 23 21 23 22 25 25 27 31 34 35 35 37 36 35 34 32 32 29 30 31 30 30 30 30 31 32 34 33 30 30 33 34 32 32 31 31 31 31
11 14 16 17 18 18 14 13 23 26 24 25 27 29 32 32 31 33 35 33 33 31 31 31 30 31 33 31 30 30 30 31 32 34 32 32 33 34 34 34 33 33 32 32 31
12 13 14 17 19 19 17 20 27 25 23 26 27 27 29 30 31 32 33 33 33 31 31 29 32 33 33 31 31 31 30 30 32 32 32 32 32 34 34 36 34 34 33 33 33
12 13 14 16 18 16 18 25 25 24 22 26 28 29 31 31 31 34 35 34 33 31 30 29 32 33 31 31 31 32 33 32 31 29 30 32 29 33 33 34 35 34 34 34 33
13 13 13 12 12 12 26 25 27 25 23 31 31 34 31 31 33 36 36 34 33 32 31 29 31 31 28 30 32 32 33 33 31 31 31 32 29 32 33 33 34 35 34 34 34
13 14 11 14 11 22 23 24 26 23 24 30 33 31 31 31 33 34 35 35 34 32 30 28 28 29 32 32 33 31 30 30 31 29 28 32 30 31 33 35 34 35 35 35 35
13 16 10 8 15 22 22 21 23 22 28 32 32 31 30 30 32 32 33 33 31 30 30 29 29 31 30 28 28 29 26 27 30 29 29 29 28 31 33 34 35 35 35 35 35
15 17 19 19 22 19 21 21 23 26 27 30 32 31 30 30 31 32 32 31 31 31 28 29 30 31 32 31 28 28 27 28 30 27 28 28 31 33 33 34 33 33 32 32 31
15 17 16 23 22 18 18 19 21 25 30 30 29 30 31 32 32 31 30 30 31 31 31 29 30 33 33 34 29 29 29 27 24 23 26 25 29 31 33 34 34 33 33 31 31
11 12 15 22 21 18 18 19 22 27 28 28 29 30 30 32 31 31 30 32 33 33 31 30 31 31 32 32 31 29 28 28 25 29 29 27 27 30 31 36 36 33 31 31 30
11 14 21 22 21 17 18 19 24 28 28 29 28 28 30 31 33 31 31 33 34 34 33 31 31 31 31 30 30 30 28 27 25 27 26 27 27 30 33 33 34 33 32 31 30
9 17 20 23 19 16 19 23 25 27 27 27 28 28 28 31 31 31 31 32 34 35 32 31 28 27 30 29 29 28 30 27 24 29 25 28 30 35 36 36 35 33 32 30 28
8 12 22 22 20 19 20 24 25 26 27 27 28 30 29 31 32 30 32 34 34 34 32 31 27 25 28 28 28 29 28 28 27 26 28 28 30 32 36 33 34 33 30 27 26
9 16 18 19 18 23 22 23 24 27 27 28 28 28 30 30 29 31 30 33 33 34 32 32 27 30 31 29 29 30 30 31 30 27 29 28 32 33 33 32 32 29 28 26 25
12 16 17 16 18 18 20 22 24 25 27 28 27 27 28 30 28 29 30 30 32 31 34 33 30 31 30 32 30 31 32 34 33 32 31 33 32 33 32 29 29 27 26 26 25
12 13 13 14 16 19 20 22 23 26 26 28 27 29 28 27 28 29 30 30 32 30 31 30 31 32 32 31 30 31 33 33 34 34 33 33 32 32 30 29 28 27 26 25 24
12 13 11 14 16 18 19 20 22 22 25 28 29 29 29 29 28 27 28 28 30 32 29 29 28 27 31 31 30 29 30 32 33 33 33 32 30 29 29 28 27 25 25 24 23
Height
799 797 794 791 788 785 782 779 777 774 771 768 765 763 760 756 752 749 746 740 737 738 741 744 745 742 745 753 752 752 783 790 772 759 748 729 737 730 728 741 741 740 746 756 768
799 796 793 789 786 783 780 778 774 772 770 767 764 761 758 754 748 742 731 733 733 736 741 746 747 744 755 756 758 768 784 771 750 746 748 731 730 733 742 747 750 750 754 761 768
798 795 791 788 785 782 779 776 772 770 767 765 762 760 757 753 750 731 726 726 729 736 742 747 747 744 761 759 764 770 782 760 742 738 737 741 738 728 747 759 745 754 755 760 767
797 793 790 787 783 780 776 773 770 768 766 763 760 758 755 753 769 728 726 726 729 736 742 748 746 763 773 769 768 774 763 749 746 740 744 749 728 737 735 742 739 743 748 756 763
795 792 788 784 780 777 774 770 768 765 763 761 758 757 756 756 742 726 727 727 729 733 741 743 752 761 767 764 767 775 770 748 742 739 736 731 730 735 741 738 742 748 753 755 759
793 789 786 782 777 774 770 767 764 762 760 758 757 756 756 763 725 724 725 726 726 729 738 741 748 746 759 763 766 760 774 773 758 740 729 724 734 732 745 740 748 750 755 757 759
791 787 783 778 774 770 766 763 760 758 756 755 754 754 755 736 724 724 725 725 724 725 733 737 735 742 749 766 757 757 771 758 737 728 735 727 752 750 738 741 750 753 755 757 759
788 784 780 776 771 766 762 758 756 753 752 751 751 753 748 717 721 719 723 723 723 723 728 731 728 738 754 763 769 780 781 796 741 735 729 733 773 747 740 745 754 754 754 756 757
786 782 778 773 768 762 757 753 750 748 747 748 750 751 743 715 714 710 715 718 718 719 721 728 730 743 748 772 794 797 806 796 777 738 737 743 763 746 740 745 752 753 752 753 755
783 779 775 771 766 760 752 748 744 743 746 748 749 755 724 716 709 707 710 712 717 716 721 725 739 754 756 774 806 803 794 779 769 742 743 756 755 746 744 744 745 747 749 749 750
781 776 772 768 763 759 750 747 747 747 744 739 734 728 711 708 707 707 707 709 712 720 743 731 758 769 754 751 757 763 770 768 752 736 750 759 763 754 745 746 746 745 745 745 743
778 773 768 763 759 755 753 753 743 745 747 723 721 717 703 712 720 704 706 719 724 744 738 750 764 743 734 741 755 764 768 767 754 744 753 757 754 739 738 736 735 736 739 740 742
776 771 765 758 753 750 749 743 740 741 749 720 707 709 703 707 715 708 704 709 725 742 743 759 742 729 739 752 755 760 769 771 764 754 745 752 760 737 726 721 725 727 725 727 731
774 769 764 755 752 749 743 737 738 736 766 730 708 692 695 700 715 690 692 704 721 739 742 752 729 737 751 757 753 763 737 749 763 775 791 754 803 742 730 727 722 722 725 722 724
770 766 762 761 754 750 737 734 731 734 796 702 695 672 676 700 696 691 686 695 723 729 739 760 742 747 767 761 744 753 732 743 758 775 782 765 792 753 730 733 722 716 715 713 714
765 761 757 757 752 739 737 732 729 771 786 712 684 692 697 698 696 690 690 688 695 721 732 745 735 738 737 739 740 741 747 747 755 780 815 771 778 765 742 720 717 708 707 708 711
757 753 752 752 743 737 737 734 772 788 717 709 700 693 700 708 707 705 710 717 732 752 753 747 746 729 731 756 754 757 785 812 802 803 805 768 787 757 724 707 701 703 704 702 703
747 742 736 733 734 740 740 756 779 739 730 699 697 702 712 704 708 706 716 729 717 722 751 765 770 735 722 732 757 762 771 794 808 818 806 769 776 749 714 701 696 702 700 704 708
739 733 728 720 727 738 748 775 761 737 711 713 707 711 713 702 703 711 720 723 713 712 742 759 754 712 708 709 734 757 773 764 806 810 811 801 764 730 714 707 704 706 702 707 707
738 731 721 717 722 733 755 763 742 714 711 714 729 709 728 710 714 714 715 698 704 695 697 725 752 722 711 709 719 742 739 776 791 803 808 800 791 769 739 719 711 714 713 711 709
739 735 714 716 723 738 761 754 728 708 710 718 726 730 720 713 702 713 708 687 681 688 690 707 727 735 723 736 741 740 750 761 774 781 806 807 787 723 716 715 713 714 708 708 710
746 740 720 717 738 748 751 731 717 713 710 716 708 712 716 702 705 707 708 693 667 671 702 696 724 754 738 725 721 727 733 748 791 780 789 776 762 698 692 690 694 705 709 708 713
758 744 724 721 745 748 734 724 718 718 713 712 708 699 696 702 706 700 692 665 664 669 684 687 730 765 753 740 729 732 730 736 740 766 779 786 761 694 687 695 690 700 710 714 719
757 750 732 726 728 730 735 731 723 702 705 702 700 696 697 699 694 696 695 671 660 657 652 664 709 719 738 738 723 731 723 717 730 766 760 761 733 706 694 695 700 707 713 718 720
756 753 750 754 740 742 736 729 722 715 697 692 700 698 699 703 703 700 689 683 667 662 657 665 707 700 705 700 708 714 709 701 711 720 744 721 724 702 692 704 711 712 718 722 724
765 766 759 755 746 739 733 728 724 708 704 696 700 685 684 698 696 699 690 690 686 674 675 671 698 696 707 699 706 712 699 703 702 704 711 716 715 689 691 701 707 712 725 728 732
771 767 766 756 748 745 739 738 725 719 694 681 683 680 684 675 671 673 674 678 677 679 688 690 703 722 725 708 709 730 707 702 697 691 694 720 702 692 697 706 711 717 710 720 736
Wind_Speed
17 17 18 19 20 20 19 19 20 20 19 21 22 21 22 25 27 12 6 12 6 6 7 5 7 5 7 4 4 2 4 3 3 2 1 4 9 5 9 17 5 8 11 28 39
18 19 19 19 20 20 20 20 20 20 20 22 23 22 21 25 21 12 23 17 15 7 5 8 10 15 4 3 2 4 3 5 2 6 4 7 14 10 8 10 6 13 20 33 38
20 21 21 21 21 22 21 21 21 21 21 21 23 21 20 19 5 7 9 10 17 11 3 19 22 14 7 3 4 2 3 12 15 14 11 5 7 4 15 3 20 24 26 24 29
20 21 22 23 23 23 23 22 21 21 22 22 22 19 18 5 4 3 8 8 16 12 7 15 7 9 2 3 5 6 9 11 9 14 14 10 9 8 5 7 20 25 26 21 19
21 22 23 23 25 24 24 24 22 22 22 22 21 16 6 3 11 18 17 7 13 13 14 8 7 5 5 5 1 3 4 17 20 23 23 19 9 8 8 17 19 21 21 21 19
22 23 24 25 25 25 25 25 23 23 22 22 20 10 1 4 8 8 9 13 13 15 15 8 9 8 9 3 4 5 3 19 22 29 10 16 10 7 14 20 20 21 19 18 17
24 25 26 26 27 27 27 26 24 24 23 20 15 2 2 18 6 7 8 14 18 14 5 10 17 7 6 5 5 6 12 14 7 5 2 7 5 8 22 21 21 19 16 16 14
25 26 27 28 28 29 29 27 26 25 22 16 7 3 8 19 18 18 18 22 20 18 17 19 23 5 8 17 3 10 7 7 8 7 2 6 5 13 20 21 20 19 17 17 16
26 27 28 28 29 31 31 29 28 22 12 5 2 4 11 12 7 18 21 13 25 27 21 18 9 7 9 8 5 5 10 7 15 3 3 5 6 14 18 20 19 19 19 18 16
26 28 28 28 30 33 34 32 16 5 2 1 4 3 8 5 5 8 16 16 7 5 8 5 5 4 2 4 7 10 7 7 6 4 6 0 1 14 17 18 21 20 18 18 19
28 28 28 30 31 34 36 9 4 3 3 10 8 6 9 3 12 8 18 6 5 3 6 5 3 5 11 8 2 7 4 4 5 7 5 4 4 5 14 12 15 18 18 18 20
29 29 29 32 31 32 16 3 6 4 8 12 16 14 29 4 8 15 11 9 6 8 3 3 4 9 6 5 8 7 4 3 4 6 3 8 10 9 17 21 19 20 19 19 16
30 30 32 33 33 11 6 14 15 22 4 8 12 10 10 11 9 14 8 8 6 6 7 8 7 7 6 5 6 6 4 2 2 5 5 3 8 12 11 21 21 20 22 19 21
31 31 32 35 8 13 9 8 29 3 3 8 6 8 7 9 7 10 11 11 5 11 4 4 4 8 3 4 3 2 0 4 1 6 3 5 5 5 8 14 24 22 19 20 20
32 32 31 23 21 7 7 23 24 4 3 5 5 6 9 12 5 4 13 6 11 7 7 6 10 8 4 5 5 7 3 2 5 2 6 11 3 11 3 7 22 23 23 21 21
36 33 28 9 11 22 20 29 4 5 7 6 6 6 7 6 8 3 3 4 7 8 5 7 1 5 8 1 4 6 9 22 7 5 4 9 7 7 7 9 17 20 22 20 18
40 32 25 14 7 3 20 5 4 4 5 6 4 5 6 7 6 7 5 3 7 6 6 3 5 4 5 6 4 2 7 2 4 2 5 3 5 7 7 7 10 21 19 18 18
37 29 21 27 22 10 4 5 4 5 6 6 6 4 9 6 7 8 5 7 5 6 4 7 5 7 8 9 10 8 7 5 5 2 4 6 3 4 6 6 10 4 9 9 8
31 13 11 21 18 12 5 3 8 6 3 6 10 4 4 5 7 9 9 9 9 10 11 6 7 1 1 4 11 7 5 6 6 3 2 5 6 8 7 9 9 8 12 9 8
23 10 9 10 18 14 4 6 6 4 6 6 2 4 9 4 4 9 10 9 8 14 9 9 4 0 1 4 3 7 12 4 3 2 3 4 5 4 7 4 5 1 9 8 8
6 4 5 20 26 5 4 8 5 5 8 5 5 7 6 7 3 2 9 11 15 13 14 9 7 5 5 1 7 2 4 5 6 5 5 3 6 8 14 14 8 11 11 12 13
8 2 18 33 4 2 3 6 3 3 5 7 5 8 7 4 2 1 5 11 11 15 10 10 7 4 3 3 3 2 3 6 6 4 4 3 6 9 20 19 14 13 9 11 16
3 3 14 9 3 3 5 8 8 11 13 6 5 5 6 7 1 5 6 5 8 11 13 8 3 4 5 4 1 4 5 5 5 5 7 5 6 5 23 9 11 17 12 16 18
2 4 4 3 1 2 4 7 8 8 10 9 12 6 4 4 3 4 7 7 11 5 15 13 6 9 11 8 5 4 6 13 7 5 8 7 11 9 4 6 9 16 17 16 16
1 3 2 4 5 7 2 5 14 15 7 2 7 9 9 3 6 3 4 7 10 9 2 6 6 2 5 7 8 7 7 5 2 13 5 17 8 6 5 9 12 16 16 17 15
3 4 5 4 5 6 4 5 11 15 6 15 5 13 10 8 9 7 1 1 3 8 8 8 5 5 2 8 9 6 12 12 20 23 18 9 7 8 15 19 22 22 16 13 10
8 7 2 5 6 4 1 9 15 14 10 11 11 2 5 11 9 7 6 4 5 2 3 1 6 6 5 7 9 2 9 15 20 13 10 6 9 9 22 20 18 13 16 16 11
Wind_Direction
352 348 346 344 342 340 337 337 337 334 334 332 332 333 334 328 323 309 237 248 233 293 238 331 336 288 56 18 14 102 51 300 260 300 139 127 112 127 122 137 171 183 152 153 157
347 345 344 342 340 337 335 333 330 330 331 331 331 334 335 329 324 268 279 261 251 245 191 48 57 54 9 12 39 74 157 242 307 343 324 155 128 132 124 146 94 103 131 146 158
343 343 342 339 338 336 332 328 327 326 329 330 328 333 333 331 320 256 316 206 212 213 178 95 92 74 335 72 345 33 197 310 296 305 309 222 143 95 128 131 145 144 150 156 155
341 340 338 336 334 334 329 326 323 322 325 326 326 332 331 347 297 332 1 183 203 209 135 139 114 124 101 350 112 353 352 302 310 321 317 286 144 143 156 165 153 150 155 157 160
338 336 334 334 333 330 327 324 319 318 321 323 323 331 337 351 251 269 280 198 202 199 128 112 116 134 155 209 309 164 16 308 304 294 289 251 186 149 126 135 143 147 157 164 167
334 333 333 334 332 328 323 319 316 315 316 319 319 328 71 266 271 279 229 202 209 200 129 145 178 197 163 89 122 229 343 244 272 265 254 131 132 99 147 141 149 156 163 170 174
331 331 331 332 330 327 321 318 314 312 311 313 312 318 224 239 155 60 203 219 224 205 159 152 161 192 120 50 268 274 351 321 282 0 97 99 69 146 153 152 156 165 166 175 182
330 330 330 330 327 325 319 315 312 309 306 304 302 153 244 270 286 273 241 262 247 229 209 179 190 135 104 173 10 24 339 357 321 343 351 112 203 155 156 155 164 171 175 181 192
329 328 328 329 328 326 318 315 311 303 296 283 153 180 267 291 258 245 229 211 233 238 230 207 192 193 143 136 113 124 247 248 297 176 360 52 131 171 169 163 168 178 183 187 195
329 327 327 328 327 328 319 320 314 293 190 137 266 335 266 253 236 229 224 209 198 217 260 207 153 187 118 120 197 177 207 226 247 319 61 0 166 170 183 174 177 182 189 193 195
329 328 327 326 327 329 326 343 12 34 199 200 192 234 286 249 329 316 233 204 206 151 221 299 98 212 229 202 122 123 173 180 277 317 12 323 209 233 199 202 185 187 192 199 201
331 330 330 324 326 321 305 232 231 75 301 231 237 240 259 345 307 291 280 174 164 218 105 344 215 223 219 117 120 155 205 233 307 278 148 273 269 249 188 208 197 191 194 199 202
338 337 331 325 324 313 281 246 325 322 268 267 208 211 233 157 222 260 151 189 165 186 207 187 232 183 175 151 165 173 175 218 86 327 232 165 292 254 210 200 193 206 201 194 197
336 335 334 330 318 323 268 319 321 266 8 272 219 242 187 164 280 229 220 172 170 194 199 214 197 142 100 255 245 200 294 142 127 40 279 103 288 278 174 192 190 199 197 199 199
334 333 330 336 297 289 300 325 335 125 334 237 216 193 156 152 195 229 202 135 194 181 134 229 151 152 149 218 176 233 261 74 12 354 310 301 124 269 314 176 192 198 198 200 197
333 328 323 323 274 276 297 330 350 52 256 286 163 164 116 146 233 308 162 126 190 189 107 169 251 179 185 165 290 82 52 312 306 144 220 235 175 279 246 189 191 200 199 198 195
330 315 300 274 235 280 325 355 59 171 306 287 225 145 154 171 198 193 234 204 181 169 207 145 202 221 128 93 340 97 123 6 312 97 207 250 156 243 300 271 173 178 198 197 195
322 316 291 257 267 266 309 59 191 229 255 316 351 301 177 155 221 208 203 229 238 148 140 159 276 181 170 168 187 185 160 146 242 275 271 321 352 274 299 291 70 82 119 117 130
325 314 274 263 236 196 84 137 209 208 291 4 339 156 235 206 163 181 205 216 208 186 194 153 246 105 193 177 140 216 140 177 110 207 292 294 302 312 324 48 76 98 94 88 78
321 312 261 229 171 149 89 237 226 244 20 27 299 21 355 309 150 191 188 208 218 200 167 212 241 266 178 80 28 176 154 117 59 177 235 299 280 232 298 324 75 114 121 113 97
312 342 313 165 138 60 175 240 280 303 359 358 315 287 234 261 107 240 219 247 197 213 195 184 167 239 117 49 172 184 131 78 140 145 162 185 255 217 221 229 165 211 154 130 98
340 343 160 147 80 156 218 219 299 302 320 296 263 250 226 244 223 324 220 223 205 196 186 200 158 161 182 196 223 171 160 137 124 244 256 186 264 222 206 228 172 163 172 108 101
325 278 183 267 141 233 272 258 239 268 264 261 290 306 314 250 236 188 303 278 266 214 192 178 187 102 3 5 244 206 191 141 106 82 241 181 263 217 225 175 178 158 125 117 112
359 1 333 2 3 109 352 278 274 253 259 252 265 298 295 309 131 285 300 302 339 314 195 162 143 180 207 196 156 184 203 187 151 141 242 220 258 301 186 186 135 117 124 121 118
77 327 360 334 322 326 323 257 290 287 266 244 301 230 226 211 334 302 299 331 341 353 278 143 145 124 195 221 157 199 207 197 91 267 211 264 213 222 118 124 110 113 121 127 126
28 17 343 285 289 320 300 4 337 335 258 282 199 293 229 181 184 266 273 351 264 330 2 342 155 61 260 177 190 221 193 210 213 241 227 184 162 259 104 122 128 125 108 88 54
344 320 113 287 325 329 343 336 315 338 309 255 263 280 277 243 180 191 178 203 226 290 326 35 131 159 212 181 158 325 202 218 240 279 153 180 210 144 132 138 142 147 138 131 159